Tracking 29892 objects as of 21-Nov-2024
HD Live streaming from Space Station
objects crossing your sky now

STARLINK-30363

Track STARLINK-30363 now!
10-day predictions
STARLINK-30363 is classified as:


NORAD ID: 57744
Int'l Code: 2023-131N
Perigee: 565.0 km
Apogee: 567.4 km
Inclination: 43.0 °
Period: 95.8 minutes
Semi major axis: 6937 km
RCS: Unknown
Launch date: September 1, 2023
Source: United States (US)
Launch site: AIR FORCE EASTERN TEST RANGE (AFETR)
Your satellite tracking list
Your tracking list is empty




NASA's NSSDC Master Catalog

Two Line Element Set (TLE):
1 57744U 23131N   24325.11920087 -.00004451  00000-0 -31461-3 0  9995
2 57744  43.0017 217.9466 0001673 283.6472  76.4184 15.02538923 68684
Source of the keplerian elements: AFSPC